COSMOS 2251 DEB, 34018

Orbit data source: Space-Track

COSMOS 2251 DEB, 34018 is space debris in LEO originally from a launch on Wed, 16 Jun 1993 UTC launched from the Plesetsk Missile And Space Complex (PKMTR). The debris from Iridium 33, an American commercial communications satellite, has been tracked extensively since its accidental collision with the defunct Russian satellite Cosmos 2251 in 2009. This event, occurring at high speed in low Earth orbit (LEO), generated thousands of pieces of space debris, significantly increasing the risk of further collisions. The Iridium 33 debris cloud has impacted space traffic management and orbital debris mitigation strategies, making it a subject of ongoing study in space situational awareness.

Loading next visibility...
Identifier
34018, 1993-036HD
Orbit
LEO
Country
Flag of CISCIS
Related business
Manufacturer
Unknown
Mission
Spacecraft
Bus & Motor
Unknown
Mass
Unknown
Launch date (UTC)
1993-06-16 (33 years ago)
Launch vehicle
Unknown
Launch site
Plesetsk Missile And Space Complex (PKMTR)
Object type
Payload
Rocket body
Debris
Shape & HBR
Unknown shape, 0.1 m
Radar Cross Section
Small (<0.1 m²)

Expand to show TLE details & history
Last TLE update: 13 hours ago

TLE from 13 hours ago
0 COSMOS 2251 DEB
1 34018U 93036HD  26073.72239316  .00000478  00000-0  36452-3 0  9990
2 34018  73.8770 296.1991 0264658 314.9279 113.3260 13.81212541859278
Epoch: 2026-03-14T17:20Z
TLE epoch observation values (Epoch: 2026-03-14T17:20:14.769Z)
Latitude
65.37164°
Longitude
-97.34932°
Altitude
1,051.681 km
Speed
7.291 km/s
True Right ascension
22h 20m 12s
True Declination
65° 14' 47"
Sunlit
Object was in daylight at epoch
Visualization orbit readout
Latitude
Unknown
Longitude
Unknown
Altitude
Unknown
Speed
Unknown
Apparent Right ascension
Unknown
Apparent Declination
Unknown
Sunlit
N/A
Visualization observer readout
Local Sidereal Time
10:40:12
Azimuth
Unknown
Elevation
Unknown
Doppler factor
Unknown
Orbital elements
Apogee altitude
1,151.423 km
Perigee altitude
763.147 km
Semi-major axis
7,335.422 km
Eccentricity
0.02647
Inclination
73.877°
RAAN
296.1991°
Arg. of periapsis
314.9279°
True anomaly
116.0738°
Mean anomaly
113.326°
Eccentric anomaly
114.7036°
Mean motion
3.45466 °/min
Orbital period
104.21 mins
BSTAR
0.00036452
Loading maneuver chart data...
Computing Atmospheric mass density...

Documentation

Showing up to 5 results
|